Location: Castelbiague
(43.0361°N, 0.9246°E)
Time: 11:48:09
(UTC+00:00)

Meteor 1-4 Rocket - Pass Details

Date: 26 October 2021
Orbit: 446 x 496 km, 81.2° (Epoch: 29 November)

Event Time Altitude Azimuth Distance (km) Brightness Sun altitude
Rises 03:48:28 0° 14° (NNE) 2,472 6.4 -28.8°
Maximum altitude 03:52:54 10° 67° (ENE) 1,605 6.1 -28.0°
Drops below altitude 10° 03:53:06 10° 70° (ENE) 1,608 6.1 -28.0°
Sets 03:57:20 0° 120° (ESE) 2,487 6.9 -27.2°
